QPF
0.05 0.04 0.04 0.03 0.04 0.03 0.02 0.03 0.04 0.05 0.04 0.03 0.02 0.02 0.03 0.04 0.04 0.05 0.05 0.04 0.05 0.05 0.05 0.05 0.06 0.06 0.07 0.07 0.06 0.05 0.05 0.06 0.06 0.05 0.04 0.04 0.03 0.03 0.02 0.01 0.02 0.02 0.02
0.03 0.03 0.04 0.04 0.05 0.04 0.03 0.02 0.02 0.02 0.02 0.03 0.02 0.02 0.01 0.02 0.03 0.04 0.04 0.03 0.03 0.03 0.03 0.03 0.04 0.04 0.05 0.06 0.06 0.05 0.05 0.05 0.05 0.06 0.05 0.05 0.03 0.02 0.02 0.01 0.01 0.01 0.01
0.02 0.02 0.02 0.03 0.05 0.04 0.03 0.03 0.03 0.03 0.03 0.03 0.02 0.02 0.02 0.02 0.03 0.04 0.04 0.04 0.04 0.02 0.02 0.02 0.02 0.03 0.03 0.04 0.05 0.04 0.04 0.03 0.04 0.04 0.03 0.03 0.02 0.01 0.02 0.02 0.02 0.02 0.03
0.02 0.03 0.03 0.03 0.04 0.04 0.03 0.03 0.03 0.03 0.02 0.02 0.02 0.02 0.02 0.03 0.03 0.04 0.04 0.05 0.04 0.02 0.01 0.01 0.02 0.02 0.02 0.02 0.03 0.02 0.02 0.02 0.03 0.03 0.03 0.02 0.02 0.02 0.01 0.01 0.02 0.03 0.05
0.02 0.02 0.02 0.03 0.04 0.04 0.04 0.05 0.05 0.04 0.03 0.03 0.02 0.02 0.02 0.02 0.02 0.03 0.03 0.03 0.03 0.02 0.02 0.03 0.03 0.02 0.02 0.02 0.02 0.02 0.01 0.01 0.01 0.01 0.01 0.01 0.02 0.02 0.02 0.01 0.02 0.03 0.02
0.02 0.01 0.02 0.02 0.03 0.04 0.05 0.05 0.05 0.05 0.04 0.04 0.03 0.02 0.02 0.02 0.02 0.03 0.03 0.03 0.05 0.05 0.04 0.04 0.03 0.02 0.02 0.01 0.01 0.01 0.01 0.00 0.00 0.00 0.01 0.01 0.01 0.01 0.02 0.02 0.02 0.02 0.02
0.01 0.01 0.02 0.03 0.03 0.03 0.03 0.04 0.05 0.04 0.03 0.03 0.03 0.02 0.02 0.03 0.04 0.04 0.05 0.05 0.06 0.06 0.05 0.04 0.02 0.01 0.01 0.01 0.01 0.01 0.00 0.00 0.00 0.00 0.01 0.00 0.01 0.01 0.01 0.01 0.01 0.01 0.01
0.01 0.02 0.02 0.03 0.05 0.05 0.04 0.04 0.03 0.03 0.02 0.02 0.02 0.02 0.02 0.03 0.04 0.03 0.03 0.03 0.03 0.04 0.03 0.03 0.02 0.01 0.01 0.01 0.01 0.00 0.00 0.00 0.00 0.00 0.00 0.00 0.00 0.01 0.01 0.01 0.01 0.01 0.01
0.02 0.02 0.03 0.03 0.03 0.03 0.03 0.03 0.02 0.02 0.01 0.01 0.01 0.01 0.01 0.01 0.02 0.02 0.03 0.03 0.03 0.03 0.03 0.03 0.03 0.03 0.03 0.02 0.01 0.01 0.00 0.00 0.00 0.00 0.00 0.00 0.01 0.01 0.01 0.01 0.01 0.01 0.01
0.02 0.02 0.02 0.03 0.03 0.03 0.03 0.02 0.01 0.01 0.01 0.01 0.01 0.01 0.01 0.01 0.02 0.02 0.03 0.03 0.04 0.04 0.03 0.04 0.04 0.03 0.03 0.03 0.02 0.01 0.01 0.01 0.01 0.00 0.01 0.01 0.01 0.01 0.01 0.01 0.01 0.01 0.01
0.01 0.01 0.02 0.03 0.03 0.03 0.02 0.01 0.01 0.01 0.01 0.01 0.01 0.01 0.01 0.01 0.02 0.02 0.02 0.02 0.03 0.05 0.04 0.03 0.03 0.03 0.03 0.03 0.02 0.01 0.01 0.01 0.01 0.01 0.01 0.01 0.01 0.01 0.01 0.02 0.01 0.01 0.01
0.01 0.01 0.01 0.02 0.02 0.01 0.01 0.01 0.01 0.01 0.01 0.01 0.01 0.02 0.01 0.01 0.02 0.02 0.02 0.02 0.02 0.04 0.05 0.04 0.03 0.03 0.03 0.02 0.01 0.01 0.01 0.01 0.01 0.01 0.01 0.00 0.00 0.00 0.00 0.01 0.01 0.01 0.01
0.01 0.01 0.01 0.01 0.01 0.01 0.02 0.01 0.01 0.01 0.01 0.02 0.02 0.02 0.02 0.01 0.01 0.01 0.02 0.03 0.03 0.03 0.05 0.05 0.03 0.03 0.02 0.02 0.01 0.01 0.01 0.01 0.01 0.00 0.00 0.00 0.01 0.01 0.01 0.01 0.01 0.01 0.01
0.01 0.01 0.01 0.01 0.02 0.02 0.02 0.01 0.01 0.01 0.02 0.03 0.03 0.02 0.01 0.01 0.01 0.01 0.02 0.03 0.04 0.03 0.03 0.03 0.02 0.02 0.01 0.01 0.01 0.00 0.00 0.00 0.00 0.00 0.01 0.01 0.01 0.01 0.01 0.01 0.01 0.01 0.01
0.03 0.04 0.04 0.03 0.02 0.01 0.01 0.02 0.01 0.01 0.01 0.01 0.01 0.01 0.01 0.01 0.01 0.01 0.01 0.01 0.03 0.04 0.02 0.01 0.01 0.01 0.01 0.01 0.00 0.00 0.00 0.00 0.00 0.00 0.01 0.01 0.01 0.01 0.01 0.01 0.01 0.01 0.01
0.04 0.05 0.05 0.04 0.03 0.02 0.02 0.03 0.03 0.02 0.01 0.01 0.01 0.00 0.00 0.01 0.01 0.01 0.01 0.01 0.01 0.02 0.02 0.01 0.01 0.01 0.01 0.01 0.01 0.00 0.00 0.01 0.02 0.02 0.01 0.01 0.01 0.01 0.01 0.01 0.02 0.02 0.01
0.04 0.05 0.05 0.05 0.03 0.02 0.02 0.02 0.02 0.01 0.01 0.01 0.01 0.01 0.00 0.00 0.00 0.00 0.00 0.00 0.00 0.01 0.02 0.02 0.02 0.02 0.02 0.02 0.01 0.01 0.01 0.01 0.03 0.05 0.05 0.04 0.04 0.03 0.03 0.02 0.02 0.02 0.02
0.04 0.05 0.04 0.03 0.03 0.02 0.01 0.00 0.01 0.01 0.01 0.01 0.00 0.00 0.00 0.00 0.00 0.00 0.00 0.00 0.00 0.00 0.01 0.01 0.02 0.02 0.02 0.03 0.02 0.01 0.01 0.03 0.04 0.06 0.10 0.10 0.07 0.05 0.04 0.03 0.02 0.01 0.01
0.04 0.04 0.02 0.01 0.01 0.01 0.01 0.01 0.01 0.00 0.00 0.00 0.00 0.00 0.00 0.00 0.00 0.00 0.00 0.00 0.00 0.00 0.01 0.02 0.03 0.04 0.04 0.03 0.03 0.02 0.02 0.03 0.04 0.05 0.07 0.08 0.08 0.06 0.04 0.02 0.02 0.01 0.01
0.01 0.01 0.01 0.01 0.01 0.02 0.02 0.01 0.01 0.01 0.00 0.00 0.00 0.00 0.00 0.00 0.00 0.00 0.00 0.00 0.00 0.01 0.01 0.02 0.03 0.03 0.02 0.01 0.01 0.01 0.02 0.03 0.04 0.04 0.04 0.05 0.06 0.05 0.04 0.02 0.02 0.02 0.01
0.01 0.02 0.02 0.02 0.02 0.02 0.02 0.02 0.02 0.01 0.00 0.00 0.00 0.00 0.00 0.00 0.00 0.00 0.00 0.00 0.01 0.01 0.01 0.01 0.01 0.01 0.01 0.02 0.02 0.02 0.03 0.03 0.03 0.03 0.03 0.03 0.05 0.05 0.04 0.03 0.03 0.02 0.02
0.01 0.01 0.02 0.03 0.03 0.03 0.02 0.02 0.01 0.01 0.01 0.00 0.01 0.00 0.00 0.00 0.00 0.00 0.00 0.00 0.00 0.00 0.00 0.00 0.00 0.01 0.01 0.01 0.02 0.02 0.02 0.01 0.01 0.01 0.01 0.02 0.02 0.02 0.02 0.02 0.02 0.02 0.02
0.01 0.01 0.01 0.01 0.02 0.02 0.02 0.02 0.01 0.01 0.01 0.01 0.01 0.00 0.00 0.00 0.00 0.00 0.00 0.00 0.00 0.00 0.00 0.00 0.00 0.00 0.00 0.01 0.01 0.01 0.02 0.01 0.01 0.01 0.01 0.01 0.01 0.01 0.02 0.02 0.02 0.02 0.01
0.00 0.00 0.00 0.00 0.00 0.01 0.01 0.01 0.01 0.02 0.02 0.02 0.02 0.01 0.00 0.00 0.00 0.00 0.00 0.00 0.00 0.00 0.00 0.00 0.00 0.00 0.00 0.01 0.01 0.00 0.00 0.00 0.00 0.00 0.00 0.00 0.00 0.01 0.01 0.01 0.02 0.02 0.02
0.00 0.00 0.00 0.00 0.00 0.01 0.02 0.02 0.02 0.03 0.03 0.02 0.02 0.02 0.01 0.01 0.01 0.01 0.01 0.00 0.00 0.00 0.00 0.00 0.00 0.00 0.00 0.00 0.00 0.00 0.00 0.00 0.00 0.00 0.00 0.00 0.00 0.00 0.01 0.01 0.01 0.01 0.01
0.00 0.00 0.00 0.00 0.00 0.00 0.01 0.01 0.02 0.03 0.03 0.02 0.02 0.02 0.02 0.02 0.01 0.01 0.01 0.01 0.01 0.01 0.01 0.01 0.00 0.00 0.00 0.00 0.00 0.00 0.00 0.00 0.00 0.00 0.00 0.00 0.00 0.00 0.01 0.01 0.02 0.01 0.01
MSLP
1015.49 1015.23 1015.02 1014.83 1014.66 1014.49 1014.33 1014.19 1014.07 1013.97 1013.90 1013.85 1013.79 1013.70 1013.59 1013.43 1013.23 1013.01 1012.79 1012.59 1012.43 1012.32 1012.25 1012.20 1012.14 1012.04 1011.87 1011.60 1011.23 1010.75 1010.19 1009.57 1008.91 1008.23 1007.55 1006.88 1006.22 1005.58 1004.95 1004.36 1003.80 1003.29 1002.85
1015.64 1015.36 1015.13 1014.94 1014.78 1014.63 1014.50 1014.38 1014.28 1014.21 1014.14 1014.08 1014.01 1013.90 1013.75 1013.57 1013.34 1013.10 1012.85 1012.62 1012.43 1012.28 1012.17 1012.08 1011.99 1011.86 1011.67 1011.40 1011.04 1010.59 1010.07 1009.47 1008.84 1008.17 1007.49 1006.80 1006.11 1005.43 1004.78 1004.15 1003.57 1003.05 1002.60
1015.82 1015.55 1015.33 1015.15 1014.99 1014.86 1014.74 1014.64 1014.55 1014.48 1014.41 1014.33 1014.23 1014.11 1013.93 1013.72 1013.48 1013.21 1012.94 1012.69 1012.47 1012.29 1012.14 1012.01 1011.88 1011.72 1011.52 1011.25 1010.91 1010.49 1009.99 1009.44 1008.83 1008.18 1007.51 1006.81 1006.11 1005.41 1004.73 1004.09 1003.49 1002.97 1002.52
1016.00 1015.76 1015.56 1015.40 1015.26 1015.13 1015.02 1014.92 1014.82 1014.74 1014.65 1014.55 1014.43 1014.27 1014.08 1013.85 1013.59 1013.31 1013.03 1012.75 1012.51 1012.29 1012.11 1011.94 1011.77 1011.59 1011.38 1011.10 1010.77 1010.38 1009.92 1009.40 1008.82 1008.20 1007.55 1006.86 1006.17 1005.47 1004.79 1004.15 1003.56 1003.05 1002.61
1016.15 1015.95 1015.79 1015.64 1015.51 1015.39 1015.27 1015.16 1015.05 1014.93 1014.82 1014.69 1014.54 1014.37 1014.16 1013.91 1013.64 1013.35 1013.06 1012.77 1012.50 1012.26 1012.04 1011.83 1011.63 1011.41 1011.18 1010.90 1010.58 1010.20 1009.77 1009.28 1008.74 1008.16 1007.53 1006.88 1006.21 1005.54 1004.89 1004.28 1003.72 1003.23 1002.81
1016.25 1016.09 1015.96 1015.83 1015.71 1015.58 1015.45 1015.32 1015.18 1015.03 1014.88 1014.73 1014.55 1014.35 1014.13 1013.88 1013.60 1013.31 1013.01 1012.71 1012.43 1012.16 1011.90 1011.65 1011.41 1011.16 1010.90 1010.60 1010.28 1009.91 1009.49 1009.03 1008.53 1007.99 1007.40 1006.79 1006.17 1005.55 1004.95 1004.39 1003.88 1003.43 1003.04
1016.28 1016.17 1016.06 1015.95 1015.82 1015.69 1015.53 1015.37 1015.20 1015.02 1014.83 1014.64 1014.44 1014.23 1013.99 1013.74 1013.46 1013.18 1012.88 1012.58 1012.28 1011.98 1011.69 1011.41 1011.13 1010.83 1010.54 1010.22 1009.87 1009.50 1009.09 1008.65 1008.18 1007.67 1007.13 1006.58 1006.01 1005.45 1004.92 1004.42 1003.96 1003.56 1003.21
1016.28 1016.18 1016.09 1015.98 1015.85 1015.70 1015.52 1015.33 1015.12 1014.91 1014.69 1014.47 1014.25 1014.02 1013.78 1013.53 1013.26 1012.98 1012.69 1012.38 1012.07 1011.76 1011.44 1011.13 1010.80 1010.47 1010.13 1009.78 1009.41 1009.02 1008.61 1008.18 1007.73 1007.25 1006.76 1006.25 1005.74 1005.24 1004.77 1004.33 1003.92 1003.57 1003.25
1016.26 1016.17 1016.08 1015.96 1015.81 1015.64 1015.44 1015.22 1014.98 1014.74 1014.50 1014.26 1014.02 1013.78 1013.54 1013.29 1013.04 1012.77 1012.48 1012.18 1011.87 1011.54 1011.21 1010.86 1010.50 1010.14 1009.76 1009.37 1008.98 1008.57 1008.15 1007.72 1007.27 1006.81 1006.35 1005.88 1005.42 1004.97 1004.54 1004.15 1003.78 1003.45 1003.14
1016.26 1016.16 1016.05 1015.92 1015.76 1015.56 1015.34 1015.09 1014.84 1014.57 1014.31 1014.05 1013.80 1013.56 1013.32 1013.08 1012.83 1012.57 1012.30 1012.01 1011.70 1011.38 1011.03 1010.66 1010.28 1009.89 1009.48 1009.07 1008.64 1008.22 1007.78 1007.35 1006.91 1006.46 1006.02 1005.57 1005.14 1004.72 1004.32 1003.94 1003.59 1003.26 1002.95
1016.30 1016.18 1016.05 1015.89 1015.71 1015.49 1015.25 1014.99 1014.71 1014.43 1014.16 1013.89 1013.63 1013.38 1013.15 1012.91 1012.67 1012.43 1012.17 1011.90 1011.60 1011.27 1010.93 1010.56 1010.17 1009.76 1009.34 1008.91 1008.47 1008.03 1007.59 1007.15 1006.72 1006.28 1005.84 1005.42 1004.99 1004.58 1004.19 1003.81 1003.45 1003.11 1002.77
1016.35 1016.21 1016.05 1015.88 1015.67 1015.44 1015.18 1014.91 1014.62 1014.33 1014.05 1013.77 1013.51 1013.26 1013.02 1012.79 1012.56 1012.32 1012.08 1011.82 1011.54 1011.23 1010.89 1010.53 1010.15 1009.75 1009.33 1008.90 1008.47 1008.03 1007.60 1007.17 1006.74 1006.31 1005.89 1005.47 1005.05 1004.64 1004.24 1003.85 1003.47 1003.09 1002.72
1016.39 1016.23 1016.06 1015.86 1015.64 1015.40 1015.13 1014.85 1014.56 1014.26 1013.96 1013.68 1013.40 1013.15 1012.90 1012.67 1012.44 1012.22 1011.99 1011.74 1011.48 1011.19 1010.88 1010.54 1010.18 1009.80 1009.41 1009.00 1008.60 1008.18 1007.78 1007.37 1006.97 1006.56 1006.16 1005.75 1005.34 1004.93 1004.52 1004.11 1003.71 1003.30 1002.89
1016.38 1016.21 1016.03 1015.82 1015.59 1015.34 1015.07 1014.78 1014.48 1014.17 1013.87 1013.57 1013.28 1013.01 1012.76 1012.52 1012.29 1012.07 1011.85 1011.62 1011.37 1011.11 1010.83 1010.53 1010.20 1009.86 1009.51 1009.15 1008.79 1008.42 1008.06 1007.70 1007.34 1006.97 1006.60 1006.22 1005.83 1005.44 1005.03 1004.61 1004.19 1003.77 1003.33
1016.28 1016.11 1015.92 1015.71 1015.48 1015.23 1014.95 1014.66 1014.35 1014.03 1013.71 1013.39 1013.09 1012.80 1012.53 1012.28 1012.05 1011.82 1011.61 1011.40 1011.18 1010.95 1010.70 1010.44 1010.16 1009.87 1009.58 1009.27 1008.97 1008.67 1008.37 1008.08 1007.78 1007.47 1007.15 1006.82 1006.47 1006.10 1005.71 1005.31 1004.89 1004.47 1004.03
1016.04 1015.88 1015.70 1015.50 1015.28 1015.03 1014.76 1014.46 1014.14 1013.80 1013.46 1013.13 1012.80 1012.49 1012.20 1011.93 1011.69 1011.47 1011.27 1011.07 1010.87 1010.68 1010.47 1010.26 1010.04 1009.81 1009.58 1009.34 1009.11 1008.89 1008.66 1008.44 1008.21 1007.97 1007.72 1007.44 1007.15 1006.82 1006.48 1006.11 1005.72 1005.31 1004.89
1015.68 1015.53 1015.37 1015.19 1014.98 1014.73 1014.46 1014.16 1013.83 1013.48 1013.12 1012.76 1012.41 1012.07 1011.77 1011.49 1011.24 1011.02 1010.83 1010.65 1010.49 1010.33 1010.17 1010.01 1009.85 1009.68 1009.52 1009.36 1009.20 1009.05 1008.91 1008.76 1008.60 1008.43 1008.24 1008.03 1007.79 1007.52 1007.23 1006.90 1006.55 1006.18 1005.79
1015.20 1015.08 1014.94 1014.78 1014.58 1014.35 1014.08 1013.77 1013.43 1013.07 1012.69 1012.31 1011.94 1011.59 1011.27 1010.98 1010.74 1010.53 1010.35 1010.20 1010.07 1009.96 1009.85 1009.75 1009.65 1009.55 1009.45 1009.36 1009.28 1009.20 1009.11 1009.03 1008.94 1008.83 1008.70 1008.54 1008.35 1008.13 1007.88 1007.60 1007.29 1006.96 1006.61
1014.66 1014.57 1014.45 1014.31 1014.13 1013.90 1013.64 1013.33 1012.98 1012.60 1012.21 1011.81 1011.43 1011.07 1010.75 1010.46 1010.23 1010.04 1009.89 1009.77 1009.69 1009.62 1009.57 1009.53 1009.49 1009.46 1009.43 1009.41 1009.38 1009.36 1009.33 1009.29 1009.24 1009.17 1009.07 1008.94 1008.79 1008.60 1008.38 1008.13 1007.85 1007.56 1007.24
1014.11 1014.04 1013.94 1013.81 1013.64 1013.43 1013.16 1012.85 1012.49 1012.11 1011.71 1011.31 1010.92 1010.56 1010.25 1009.98 1009.76 1009.60 1009.49 1009.42 1009.38 1009.37 1009.38 1009.41 1009.43 1009.46 1009.49 1009.52 1009.55 1009.56 1009.57 1009.56 1009.53 1009.47 1009.38 1009.26 1009.11 1008.93 1008.71 1008.48 1008.22 1007.95 1007.65
1013.59 1013.52 1013.44 1013.32 1013.15 1012.94 1012.68 1012.37 1012.01 1011.63 1011.23 1010.83 1010.45 1010.11 1009.81 1009.56 1009.37 1009.25 1009.18 1009.15 1009.17 1009.22 1009.29 1009.38 1009.47 1009.56 1009.65 1009.73 1009.79 1009.84 1009.86 1009.86 1009.82 1009.75 1009.65 1009.51 1009.34 1009.14 1008.91 1008.67 1008.41 1008.14 1007.85
1013.12 1013.06 1012.97 1012.85 1012.68 1012.47 1012.21 1011.90 1011.55 1011.17 1010.79 1010.40 1010.04 1009.72 1009.44 1009.23 1009.07 1008.98 1008.95 1008.97 1009.04 1009.14 1009.27 1009.42 1009.57 1009.72 1009.86 1009.98 1010.08 1010.14 1010.18 1010.17 1010.12 1010.02 1009.89 1009.71 1009.51 1009.27 1009.02 1008.75 1008.48 1008.20 1007.91
1012.72 1012.65 1012.55 1012.41 1012.24 1012.02 1011.76 1011.46 1011.12 1010.76 1010.40 1010.04 1009.70 1009.41 1009.16 1008.97 1008.84 1008.78 1008.78 1008.84 1008.95 1009.10 1009.27 1009.47 1009.67 1009.87 1010.06 1010.22 1010.35 1010.44 1010.48 1010.46 1010.39 1010.27 1010.10 1009.88 1009.63 1009.36 1009.07 1008.78 1008.49 1008.21 1007.92
1012.38 1012.28 1012.15 1012.00 1011.82 1011.59 1011.34 1011.05 1010.73 1010.40 1010.07 1009.74 1009.44 1009.18 1008.95 1008.79 1008.68 1008.63 1008.65 1008.73 1008.86 1009.03 1009.24 1009.48 1009.72 1009.97 1010.20 1010.40 1010.56 1010.67 1010.72 1010.70 1010.62 1010.47 1010.27 1010.02 1009.74 1009.44 1009.13 1008.82 1008.52 1008.23 1007.95
1012.06 1011.93 1011.78 1011.61 1011.41 1011.19 1010.94 1010.68 1010.40 1010.10 1009.81 1009.53 1009.26 1009.03 1008.83 1008.67 1008.57 1008.53 1008.54 1008.62 1008.75 1008.93 1009.15 1009.40 1009.68 1009.96 1010.22 1010.46 1010.65 1010.79 1010.86 1010.85 1010.77 1010.61 1010.40 1010.13 1009.83 1009.52 1009.20 1008.90 1008.61 1008.34 1008.08
1011.74 1011.58 1011.40 1011.21 1011.02 1010.81 1010.59 1010.36 1010.12 1009.88 1009.64 1009.40 1009.18 1008.97 1008.78 1008.63 1008.52 1008.46 1008.45 1008.50 1008.61 1008.77 1008.99 1009.25 1009.53 1009.84 1010.13 1010.40 1010.63 1010.80 1010.89 1010.91 1010.84 1010.70 1010.49 1010.22 1009.93 1009.62 1009.32 1009.03 1008.76 1008.53 1008.30
Thickness
5681 5680 5679 5678 5677 5675 5674 5673 5671 5671 5670 5669 5667 5665 5663 5661 5660 5658 5656 5655 5653 5651 5648 5646 5644 5642 5640 5638 5636 5633 5629 5625 5620 5620 5620 5620 5618 5616 5615 5614 5613 5612 5612
5679 5678 5677 5676 5674 5672 5671 5670 5670 5668 5668 5666 5665 5663 5660 5658 5657 5655 5653 5651 5648 5646 5643 5641 5639 5637 5634 5632 5629 5627 5624 5620 5616 5612 5612 5611 5611 5609 5608 5606 5605 5605 5604
5677 5675 5674 5673 5671 5670 5669 5668 5667 5666 5664 5664 5662 5660 5658 5656 5654 5652 5650 5648 5645 5642 5640 5637 5634 5632 5629 5627 5624 5621 5618 5616 5612 5607 5604 5604 5603 5602 5600 5599 5598 5596 5596
5674 5673 5671 5670 5669 5668 5667 5666 5665 5664 5662 5661 5660 5658 5657 5655 5653 5651 5648 5645 5642 5639 5637 5634 5631 5629 5626 5624 5621 5617 5614 5610 5606 5601 5598 5596 5595 5594 5592 5589 5588 5588 5587
5672 5670 5669 5668 5668 5666 5665 5664 5663 5662 5660 5659 5657 5655 5654 5652 5650 5647 5645 5642 5638 5635 5633 5630 5629 5627 5625 5622 5619 5614 5610 5605 5600 5596 5592 5590 5588 5586 5584 5582 5580 5579 5579
5670 5668 5668 5667 5666 5664 5663 5662 5660 5659 5658 5656 5654 5653 5651 5649 5647 5644 5642 5639 5635 5631 5628 5627 5626 5624 5622 5619 5616 5613 5609 5603 5597 5592 5588 5585 5583 5581 5579 5577 5573 5570 5569
5668 5667 5666 5665 5663 5662 5661 5659 5658 5656 5655 5653 5651 5649 5647 5645 5643 5641 5639 5635 5631 5628 5625 5623 5622 5621 5617 5614 5611 5609 5605 5601 5597 5591 5585 5582 5580 5579 5575 5571 5568 5564 5562
5667 5666 5665 5663 5661 5660 5659 5657 5655 5654 5653 5651 5649 5647 5644 5642 5641 5638 5635 5631 5628 5625 5622 5620 5617 5615 5613 5609 5606 5602 5599 5596 5593 5589 5585 5582 5579 5577 5572 5568 5564 5561 5559
5665 5664 5663 5662 5659 5658 5657 5655 5654 5652 5650 5649 5647 5644 5641 5639 5637 5635 5632 5627 5624 5621 5619 5617 5614 5611 5609 5605 5600 5596 5593 5591 5589 5586 5583 5580 5577 5574 5570 5564 5559 5555 5552
5664 5663 5662 5661 5659 5657 5656 5654 5653 5651 5649 5647 5644 5642 5639 5636 5635 5632 5629 5624 5620 5617 5615 5613 5611 5607 5604 5601 5596 5591 5587 5585 5582 5580 5578 5576 5573 5570 5567 5562 5557 5552 5548
5664 5663 5661 5660 5658 5656 5654 5653 5651 5649 5646 5644 5641 5639 5636 5634 5632 5629 5626 5621 5618 5615 5612 5609 5607 5604 5601 5598 5594 5589 5585 5582 5578 5574 5572 5570 5568 5565 5562 5559 5555 5550 5546
5663 5661 5659 5658 5657 5655 5652 5650 5648 5645 5642 5639 5636 5634 5632 5630 5628 5626 5623 5619 5616 5611 5608 5605 5603 5601 5598 5594 5591 5587 5583 5579 5574 5570 5567 5564 5562 5560 5558 5556 5553 5550 5547
5660 5658 5657 5656 5654 5652 5650 5647 5644 5641 5638 5635 5632 5629 5628 5626 5624 5622 5619 5616 5613 5608 5605 5603 5600 5597 5594 5591 5588 5584 5580 5574 5570 5566 5563 5561 5560 5558 5555 5553 5551 5548 5545
5658 5656 5654 5652 5650 5649 5647 5645 5641 5638 5635 5632 5629 5626 5624 5622 5619 5617 5615 5612 5609 5605 5602 5600 5597 5594 5591 5587 5584 5580 5576 5572 5568 5564 5561 5560 5557 5555 5552 5549 5546 5543 5539
5656 5654 5652 5650 5647 5645 5643 5641 5639 5637 5635 5631 5628 5625 5621 5619 5618 5616 5612 5608 5605 5602 5598 5595 5592 5589 5585 5582 5578 5575 5572 5569 5565 5562 5560 5557 5555 5552 5549 5547 5543 5539 5534
5654 5651 5649 5647 5645 5643 5640 5638 5638 5636 5635 5632 5629 5625 5622 5620 5617 5614 5611 5607 5604 5600 5595 5591 5588 5585 5581 5578 5575 5572 5569 5566 5563 5561 5558 5555 5552 5549 5546 5543 5539 5535 5530
5653 5650 5648 5646 5644 5641 5637 5634 5632 5632 5631 5629 5627 5623 5620 5618 5614 5611 5607 5604 5600 5596 5591 5587 5584 5582 5579 5576 5573 5570 5567 5565 5562 5559 5556 5553 5550 5547 5544 5540 5536 5531 5527
5653 5650 5647 5644 5642 5639 5636 5634 5631 5628 5625 5624 5623 5621 5618 5615 5611 5608 5604 5600 5595 5591 5587 5585 5582 5580 5577 5574 5572 5568 5566 5563 5560 5557 5553 5550 5547 5544 5541 5537 5533 5529 5525
5652 5649 5646 5644 5641 5639 5636 5633 5630 5627 5624 5621 5619 5617 5615 5612 5608 5604 5599 5595 5592 5589 5586 5583 5581 5579 5576 5573 5570 5567 5564 5561 5558 5554 5551 5547 5544 5541 5538 5535 5531 5527 5523
5650 5649 5646 5643 5640 5637 5634 5631 5628 5625 5622 5619 5616 5614 5611 5607 5602 5599 5595 5592 5589 5587 5585 5582 5580 5577 5574 5571 5569 5566 5562 5558 5555 5551 5548 5545 5542 5538 5535 5533 5529 5525 5521
5649 5647 5646 5642 5638 5636 5633 5630 5627 5624 5621 5618 5616 5614 5610 5605 5601 5598 5595 5591 5588 5586 5584 5581 5578 5575 5572 5569 5567 5563 5560 5556 5552 5548 5545 5542 5539 5536 5533 5530 5527 5524 5520
5647 5645 5643 5640 5637 5635 5633 5630 5627 5624 5621 5618 5615 5612 5608 5604 5600 5597 5594 5592 5589 5586 5584 5580 5577 5574 5571 5568 5565 5561 5557 5554 5550 5546 5543 5540 5537 5534 5531 5528 5526 5523 5520
5645 5643 5641 5638 5636 5635 5632 5629 5626 5623 5620 5617 5614 5610 5606 5602 5599 5596 5594 5592 5590 5587 5584 5580 5577 5573 5571 5568 5565 5560 5556 5552 5549 5545 5541 5538 5535 5532 5529 5527 5525 5523 5520
5643 5641 5638 5636 5634 5632 5629 5627 5624 5622 5619 5615 5612 5609 5605 5601 5598 5596 5594 5592 5589 5586 5583 5580 5577 5573 5570 5566 5563 5559 5556 5552 5549 5545 5541 5537 5534 5531 5528 5526 5524 5522 5520
5640 5638 5636 5633 5632 5630 5627 5625 5623 5620 5617 5614 5610 5607 5603 5600 5598 5595 5593 5591 5588 5585 5583 5579 5576 5572 5569 5565 5561 5558 5555 5551 5548 5544 5541 5537 5533 5531 5528 5526 5523 5521 5519
5637 5636 5633 5631 5629 5627 5625 5623 5621 5618 5614 5612 5608 5605 5601 5599 5596 5594 5592 5590 5587 5584 5581 5578 5575 5571 5568 5564 5560 5557 5553 5550 5546 5543 5539 5536 5533 5530 5528 5525 5523 5520 5518